Location: Puketoi
(40.5833°S, 176.0167°E)
Time: 15:36:54
(UTC+00:00)

IRS-1D - Pass Details

Date: 08 February 2023
Orbit: 739 x 816 km, 98.7° (Epoch: 23 March)

Event Time Altitude Azimuth Distance (km) Brightness Sun altitude
Exits shadow 14:06:08 56° 136° (SE) 892 4.0 -30.2°
Drops below altitude 10° 14:10:32 10° 186° (S) 2,282 6.6 -29.8°
Sets 14:12:52 0° 189° (S) 3,215 7.5 -29.6°
